Location: Lugrin
(46.4033°N, 6.6674°E)
Time: 00:55:36
(UTC+00:00)

SPOT 3 Rocket - Visible Passes

Search period start: 24 January 2021 00:00
Search period end: 03 February 2021 00:00
Orbit: 778 x 795 km, 98.7° (Epoch: 23 January)

Date Brightness Start Highest point End Pass type
(mag) Time Alt. Az. Time Alt. Az. Time Alt. Az.
28 Jan 6.0 19:24:52 11° N 19:24:52 11° N 19:25:00 10° N visible
29 Jan 5.9 18:53:54 10° NNE 18:53:54 10° NNE 18:53:59 10° NNE visible
30 Jan 6.2 20:03:35 11° NNW 20:03:35 11° NNW 20:03:46 10° NNW visible
31 Jan 5.9 19:32:36 13° N 19:32:36 13° N 19:33:06 10° N visible
01 Feb 5.7 19:01:38 12° NNE 19:01:38 12° NNE 19:02:10 10° N visible
02 Feb 5.7 18:30:39 10° NNE 18:30:39 10° NNE 18:30:45 10° NNE visible
02 Feb 6.1 20:11:18 13° NNW 20:11:18 13° NNW 20:11:47 10° NNW visible
